Regional Weather Roundup
Issued by NWS Little Rock, AR

Home | Current Version | Previous Version | Text Only | Print | Product List | Glossary On
Versions: 1 2 3 4 5 6 7 8 9 10 11 12 13 14 15 16 17 18 19 20 21 22 23 24 25 26 27 28 29 30 31 32 33 34 35 36 37 38 39 40 41 42 43 44 45 46 47 48
832
ASUS44 KLZK 101005
RWRLZK

WEATHER ROUNDUP FOR ARKANSAS
NATIONAL WEATHER SERVICE LITTLE ROCK AR
400 AM CST WED FEB 10 2016

NOTE: "FAIR" INDICATES FEW OR NO CLOUDS BELOW 12,000 FEET WITH NO
SIGNIFICANT WEATHER AND/OR OBSTRUCTIONS TO VISIBILITY.

ARZ001-003-010-029-101100-
NORTHWEST ARKANSAS

CITY           SKY/WX    TMP DP  RH WIND       PRES   REMARKS
FAYETTEVILLE   CLEAR     17  10  74 CALM      30.26S
FORT SMITH     CLEAR     25   7  46 W5        30.31F WCI  19
HARRISON       CLEAR     21   8  57 W7        30.20S WCI  12
BENTONVILLE    CLEAR    N/A N/A N/A CALM      30.25S
ROGERS         CLEAR     20   8  60 W6        30.25S WCI  12
SILOAM SPGS    CLEAR     19   1  45 CALM      30.25F
HIGHFILL       CLEAR     19  10  68 W3        30.24F
$$

ARZ004-005-016-101100-
NORTH CENTRAL ARKANSAS

CITY           SKY/WX    TMP DP  RH WIND       PRES   REMARKS
BATESVILLE     CLEAR     25   5  42 NW5       30.25R WCI  19
FLIPPIN        CLEAR     25   5  42 W7        30.20S WCI  17
MTN HOME       CLEAR     22   8  55 NW5       30.19F WCI  16
$$

ARZ040-041-101100-
WEST CENTRAL ARKANSAS

CITY           SKY/WX    TMP DP  RH WIND       PRES   REMARKS
MENA           CLEAR     32  10  40 CALM      30.27S
MOUNT IDA      CLEAR     29   8  41 CALM      30.27R
$$

ARZ009-017-025-026-028-101100-
NORTHEAST ARKANSAS

CITY           SKY/WX    TMP DP  RH WIND       PRES   REMARKS
CORNING        FAIR      23   9  54 NW8       30.22S WCI  14
JONESBORO      CLEAR     24   7  48 NW8       30.23R WCI  15
NEWPORT        CLEAR     24   7  48 NW10      30.26R WCI  14
WALNUT RIDGE   CLEAR     21   5  49 N9        30.24R WCI  11
BLYTHEVILLE    CLEAR     20  13  74 NW6       30.22R WCI  12
$$

ARZ022-023-033-042-044-101100-
CENTRAL ARKANSAS

CITY           SKY/WX    TMP DP  RH WIND       PRES   REMARKS
LITTLE ROCK    CLEAR     30   6  36 NW9       30.29R WCI  22
N LITTLE ROCK    N/A     28  10  47 W7        30.29R WCI  21
SEARCY         CLEAR     27   9  46 CALM      30.28R
HOT SPRINGS    CLEAR     31  10  41 CALM      30.29R
RUSSELLVILLE   CLEAR     28   8  43 W5        30.28R WCI  23
CLINTON        FAIR      27   7  43 CALM      30.27R
$$

ARZ036-101100-
EAST ARKANSAS

CITY           SKY/WX    TMP DP  RH WIND       PRES   REMARKS
WEST MEMPHIS   CLEAR     25  15  66 N6        30.22S WCI  18
$$

ARZ050-053-066-070-073-101100-
SOUTHWEST ARKANSAS

CITY           SKY/WX    TMP DP  RH WIND       PRES   REMARKS
ARKADELPHIA    FAIR      30  14  51 SW6       30.31R WCI  24
CAMDEN         CLEAR     28  14  54 NW3       30.30R
TEXARKANA      CLEAR     35  17  47 N6        30.29S WCI  30
EL DORADO      CLEAR     27  18  69 NW3       30.30R
DE QUEEN       CLEAR     31  17  56 CALM      30.30R
$$

ARZ056-057-069-101100-
SOUTHEAST ARKANSAS

CITY           SKY/WX    TMP DP  RH WIND       PRES   REMARKS
PINE BLUFF     CLEAR     29  11  47 N9        30.28R WCI  20
STUTTGART      CLEAR     28  10  47 NW10      30.27R WCI  19
MONTICELLO     CLEAR     31  12  45 NW3       30.27R

$$






USA.gov is the U.S. government's official web portal to all federal, state and local government web resources and services.